Location: *
(49.9853°N, 3.5569°E)
Time: 17:39:03
(UTC+00:00)

SL-16 R/B - Pass Details

Date: 22 September 2019
Orbit: 840 x 850 km, 71.0° (Epoch: 22 October)

Event Time Altitude Azimuth Distance (km) Brightness Sun altitude
Rises 19:14:16 0° 331° (NNW) 3,417 6.1 -15.0°
Reaches altitude 10° 19:16:44 10° 333° (NNW) 2,479 5.3 -15.3°
Maximum altitude 19:22:26 76° 59° (ENE) 879 2.2 -16.2°
Enters shadow 19:26:15 22° 143° (SE) 1,786 3.4 -16.8°
